Location: Hac?musa Deresi
(39.1694°N, 32.2508°E)
Time: 10:54:51
(UTC+00:00)

ATLAS 3B R/B - Pass Details

Date: 22 April 2026
Orbit: 937 x 1256 km, 63.8° (Epoch: 20 May)

Event Time Altitude Azimuth Distance (km) Brightness Sun altitude
Rises 22:47:46 0° 325° (NW) 4,187 6.2 -36.6°
Reaches altitude 10° 22:50:37 10° 324° (NW) 3,195 5.5 -36.4°
Enters shadow 22:55:41 44° 312° (NW) 1,605 3.6 -36.1°
